Regional Weather Roundup
Issued by NWS Newport/Morehead, NC

Current Version | Previous Version | Graphics & Text | Print | Product List | Glossary Off
Versions: 1 2 3 4 5 6 7 8 9 10 11 12 13 14 15 16 17 18 19 20 21 22 23 24 25 26 27 28 29 30 31 32 33 34 35 36 37 38 39 40 41 42 43 44 45 46 47 48 49 50
000 ASUS42 KMHX 020322 RWRMHX WEATHER ROUNDUP FOR EASTERN NORTH CAROLINA NATIONAL WEATHER SERVICE NEWPORT/MOREHEAD CITY NC 1100 PM EDT WED OCT 01 2014 NOTE: "FAIR" INDICATES FEW OR NO CLOUDS BELOW 12,000 FEET WITH NO SIGNIFICANT WEATHER AND/OR OBSTRUCTIONS TO VISIBILITY NCZ015>017-031-032-045>047-102-103-020400- NORTH COAST CITY SKY/WX TMP DP RH WIND PRES REMARKS EDENTON CLEAR 63 62 96 CALM 30.05R ELIZABETH CITY CLOUDY 68 64 87 NE7 30.04S KITTY HAWK CLOUDY 69 63 82 NE7 30.03R MANTEO MOCLDY 68 63 83 NE6 30.04R $$ NCZ045>047-081-094-103-104-020400- CENTRAL COAST CITY SKY/WX TMP DP RH WIND PRES REMARKS FRISCO PTCLDY 67 64 90 NE7 30.03R SWANQUARTER N/A 66 N/A N/A E2 30.00S $$ NCZ095-097-098-100-101-020400- SOUTHERN COAST CITY SKY/WX TMP DP RH WIND PRES REMARKS BEAUFORT CLEAR 69 65 86 E5 30.03S CEDAR ISLAND N/A 72 N/A N/A NE7 30.06S JACKSONVILLE CLEAR 65 64 97 CALM 30.02F NEWPORT NOT AVBL PINEY ISLAND CLEAR 73 65 75 NE6 30.03R WILMINGTON CLEAR 67 65 93 CALM 30.03R $$ NCZ011>013-027>030-043-044-078>080-089-090>093-098-020400- COASTAL PLAIN CITY SKY/WX TMP DP RH WIND PRES REMARKS AHOSKIE PTCLDY 64 61 91 CALM 30.06R CLINTON CLEAR 64 64 100 CALM 30.03S ELIZABETHTOWN CLEAR 67 66 97 CALM 30.03S GOLDSBORO CLEAR 64 64 98 CALM 30.02R GREENVILLE FOG 63 63 100 CALM 30.06R VSB 1/2 HAVELOCK PTCLDY 66 64 93 SE6 30.04S KENANSVILLE CLEAR 61 61 100 CALM 30.04S KINSTON CLEAR 62 61 97 CALM 30.04S FOG NEW BERN PTCLDY 66 63 88 CALM 30.04S FOG RICHLANDS MOCLDY 63 57 82 CALM 30.03S VSB 3/4 ROANOKE RAPIDS NOT AVBL ROCKY MOUNT FOG 60 59 96 CALM 30.04S VSB 1/4 WASHINGTON PTCLDY 64 63 94 CALM 30.05R WHITEVILLE CLEAR 67 65 94 CALM 30.03S $$ AMZ130-135-150-152-154-156-158-170-250-252-270-ANZ085-086-088-633-658-670-020400- MARINE OBSERVATIONS STATION/POSITION TIME TEMP WIND PRES WAVE SWELL AIR SEA DIR/SP/G HT/PER HT/PER (UTC) (F) (DEG/KT/KT) (MB) (FT/S) (FT/S) CHESAPEAKE LIGHT 0300 69 50/ 12/ 14 1018.0 BUOY 44014 0300 69 71 10/ 14/ 16 1016.4 4/ 7 3/ 7 DUCK 0200 70 N/A 2E DUCK 0300 N/A 4/ 6 OREGON INLET 0200 69 N/A BUOY 44095 0300 73 N/A 4/ 7 2/13 20E OREGON INLET NOT AVBL HATTERAS CG 0200 70 N/A DIAMOND BUOY 0300 71 10/ 14/ 16 1016.4 3/12 2/12 CAPE LOOKOUT 0300 73 50/ 9/ 10 1016.7 BEAUFORT LAB 0200 71 N/A 30 SE NEW RIVER 0300 76 79 50/ 10/ 12 1016.3 2/ 7 2/ 7 5 SE WRIGHTSVILL 0300 72 76 350/ 2/ 2 N/A BUOY 41002 0245 79 80 30/ 14/ 16 1015.2 4/ 7 2/ 7 BUOY 41004 0300 78 81 80/ 8/ 12 1016.4 2/ 7 2/ 7 $$

USA.gov is the U.S. government's official web portal to all federal, state and local government web resources and services.